AirNav   ATP
 
 831 users online  

75G Rossettie Airport
Manchester, Michigan, USA

GOING TO MANCHESTER?


FAA INFORMATION EFFECTIVE 24 MAY 2018

Location

FAA Identifier: 75G
Lat/Long: 42-11-42.3500N / 084-01-51.1000W
42-11.705833N / 084-01.851667W
42.1950972 / -84.0308611
(estimated)
Elevation: 1005 ft. / 306.3 m (surveyed)
Variation: 05W (1985)
From city: 3 miles N of MANCHESTER, MI
Time zone: UTC -4 (UTC -5 during Standard Time)
Zip code: 48158

Airport Operations

Airport use: Open to the public
Activation date: 02/1976
Control tower: no
ARTCC: CLEVELAND CENTER
FSS: LANSING FLIGHT SERVICE STATION
NOTAMs facility: LAN (NOTAM-D service available)
Attendance: IREG
Wind indicator: lighted
Segmented circle: yes
Lights: ACTIVATE LIRL-CTAF.

Airport Communications

CTAF: 122.9
WX ASOS at ARB (13 nm E): PHONE 734-668-7173
WX ASOS at JXN (20 nm W): PHONE 517-768-7506
WX ASOS at ADG (20 nm S): 118.375 (517-265-9089)

Nearby radio navigation aids

VOR radial/distance  VOR name  Freq  Var
JXNr106/19.4JACKSON VOR/DME109.6005W
SVMr240/23.2SALEM VORTAC114.3003W
CRLr292/27.0CARLETON VOR/DME115.7003W
DXOr274/29.5DETROIT VOR/DME113.4006W
LFDr081/33.6LITCHFIELD VOR/DME111.2005W
PSIr219/37.5PONTIAC VORTAC111.0003W

 
NDB name  Hdg/Dist  Freq  Var  ID
TECUMSEH332/11.623906WTCU - -.-. ..-
ADRIAN012/19.627806WADG .- -.. --.
GROSSE ILE285/39.541907WRYS .-. -.-- ...

Airport Services

Fuel available: UL94
Parking: tiedowns
Airframe service: NONE
Powerplant service: NONE
Bottled oxygen: NONE
Bulk oxygen: NONE

Runway Information

Runway 18/36

Dimensions: 2480 x 100 ft. / 756 x 30 m
Surface: turf, in fair condition
Runway edge lights: low intensity
NSTD LIRL DUE TO SPACING.
Runway edge markings: RY 18 /36 MKD WITH 2 FT YELLOW CONES AND PAINTED TIRES.
Gradient: S
RUNWAY 18  RUNWAY 36
Latitude: 42-11.910000N42-11.501667N
Longitude: 084-01.856667W084-01.846667W
Elevation: 968.0 ft.1005.0 ft.
Gradient: 1.5% UP
Traffic pattern: leftright
Runway heading: 184 magnetic, 179 true004 magnetic, 359 true
Displaced threshold: no365 ft.
Markings: NSTDNSTD
Runway end identifier lights: nono
Obstructions: 40 ft. trees, 321 ft. from runway, 120 ft. right of centerline, 8:1 slope to clear12 ft. road, 30 ft. from runway, 2:1 slope to clear
APCH RATIO 20:1 AT DSPLCD THLD; DSPLCD THLD EST -7 FT BLO THLD.

Airport Ownership and Management from official FAA records

Ownership: Privately-owned
Owner: ALICE G. ROSSETTIE
8875 CHELSEA RD
MANCHESTER, MI 48158
Phone 734-428-8954
Manager: ALICE G. ROSSETTIE
ROSSETTIE AIRPORT INC, 8875 CHELSEA RD
MANCHESTER, MI 48158
Phone 734-428-8954
AMGR LIVES AT ARPT.

Airport Operational Statistics

Aircraft based on the field: 13
Single engine airplanes: 11
Gliders airplanes: 2
    
Aircraft operations: avg 42/month *
60% local general aviation
40% transient general aviation
* for 12-month period ending 31 December 2014

Additional Remarks

FIELD GETS MUDDY IN SPRING.
RY ON ROLLING TERRAIN.
FOR CD CTC DETROIT APCH AT 800-499-8181.

Instrument Procedures

There are no published instrument procedures at 75G.

Some nearby airports with instrument procedures:

3TE - Al Meyers Airport (11 nm S)
KARB - Ann Arbor Municipal Airport (13 nm E)
KJXN - Jackson County Airport-Reynolds Field (20 nm W)
KADG - Lenawee County Airport (20 nm S)
KYIP - Willow Run Airport (22 nm E)
 
Loc | Ops | Rwys | IFR | FBO | Links
Com | Nav | Svcs | Stats | Notes

AirNav Hotels Sweepstakes
 
Area around 75G (Rossettie Airport)
 
Road maps at: MapQuest Bing Google
 
Aerial photo
WARNING: Photo may not be current or correct
Aerial photo of 75G (Rossettie Airport)
Photo by Evan Nau

Do you have a better or more recent aerial photo of Rossettie Airport that you would like to share? If so, please send us your photo.

 
Sectional chart

 
Airport distance calculator
Flying to Rossettie Airport? Find the distance to fly.

From to 75G

Sunrise and sunset
Times for 17-Jun-2018
 Local
(UTC-4)
 Zulu
(UTC)
Morning civil twilight05:2609:26
Sunrise06:0010:00
Sunset21:1401:14
Evening civil twilight21:4801:48

Current date and time
Zulu (UTC)  18-Jun-2018 02:57:57
Local (UTC-4)  17-Jun-2018 22:57:57
 
METAR
KARB 
13nm E 
734-668-7173
180253Z AUTO 19004KT 10SM CLR 24/20 A3000 RMK AO2 SLP150 T02390200 53008
KJXN 
20nm W 
180156Z AUTO 20007KT 10SM CLR 29/21 A3000 RMK AO2 SLP148 T02890206
KADG 
20nm S 
180253Z AUTO 24003KT 10SM CLR 27/20 A3002 RMK AO2 SLP160 T02720200 53009 TSNO $
KYIP 
22nm E 
180253Z 22006KT 10SM CLR 27/21 A3000 RMK AO2 SLP149 T02720206 53008
KOZW 
25nm N 
180235Z AUTO 20004KT 10SM CLR 28/20 A2999 RMK AO2 T02770201
TAF
KJXN 
20nm W 
171726Z 1718/1818 22011KT P6SM FEW045 SCT250 FM181400 26014KT P6SM FEW035 SCT250
KYIP 
22nm E 
171726Z 1718/1818 23007KT P6SM SCT045 SCT250 FM172300 22006KT P6SM SCT250 FM181200 25009KT P6SM FEW050 BKN250
NOTAMs
Click for the latest NOTAMs
NOTAMs are issued by the DoD/FAA and will open in a separate window not controlled by AirNav.

 

 
 

Would you like to see your business listed on this page?

 If your business provides an interesting product or service to pilots, flight crews, aircraft, or users of the Rossettie Airport, you should consider listing it here.  To start the listing process, click on the button below
 
Add a business
 

Other Pages about Rossettie Airport

Page from the Michigan Airport Directory (PDF)
 
Update a link
 
Copyright © AirNav, LLC. All rights reserved. Privacy Policy  Contact